This is the latest recevied weather packets stored in our database for station/object WZ9ZZZ-1. If no packets are shown the sender has not sent any weather packets the latest 10 day(s).
| Time | Temp. | Humidity | Pressure | Rain* | Wind** | Luminosity | Snow |
|---|---|---|---|---|---|---|---|
| 1778013418 | 27.22° C | 82% | 1012.4 hPa | 0 mm | - | 182 W/m² | - |
| 1778013115 | 27.22° C | 82% | 1012.3 hPa | 0 mm | - | 211 W/m² | - |
| 1778012810 | 27.22° C | 82% | 1012.6 hPa | 0 mm | - | 253 W/m² | - |
| 1778012507 | 27.22° C | 81% | 1012.6 hPa | 0 mm | - | 268 W/m² | - |
| 1778012203 | 27.22° C | 82% | 1012.8 hPa | 0 mm | - | 259 W/m² | - |
| 1778011901 | 27.78° C | 81% | 1012.8 hPa | 0 mm | - | 219 W/m² | - |
| 1778011599 | 27.78° C | 81% | 1012.8 hPa | 0 mm | - | 312 W/m² | - |
| 1778011296 | 27.22° C | 81% | 1012.9 hPa | 0 mm | - | 379 W/m² | - |
| 1778010992 | 27.22° C | 82% | 1012.6 hPa | 0 mm | - | 226 W/m² | - |
| 1778010689 | 27.22° C | 81% | 1012.8 hPa | 0 mm | - | 163 W/m² | - |
| 1778010386 | 27.22° C | 82% | 1012.9 hPa | 0 mm | - | 291 W/m² | - |
| 1778010082 | 27.22° C | 81% | 1013 hPa | 0 mm | - | 262 W/m² | - |
| 1778009779 | 27.22° C | 82% | 1012.7 hPa | 0 mm | - | 233 W/m² | - |
| 1778009476 | 27.22° C | 81% | 1012.7 hPa | 0 mm | - | 262 W/m² | - |
| 1778009175 | 27.22° C | 82% | 1012.7 hPa | 0 mm | - | 295 W/m² | - |
| 1778008872 | 27.22° C | 82% | 1013 hPa | 0 mm | - | 403 W/m² | - |
| 1778008570 | 26.67° C | 83% | 1013 hPa | 0 mm | - | 278 W/m² | - |
| 1778008268 | 26.67° C | 84% | 1013.1 hPa | 0 mm | - | 193 W/m² | - |
| 1778007963 | 26.67° C | 84% | 1013 hPa | 0 mm | - | 237 W/m² | - |
| 1778007658 | 26.67° C | 85% | 1013 hPa | 0 mm | - | 177 W/m² | - |
| 1778007355 | 26.11° C | 85% | 1012.9 hPa | 0 mm | - | 198 W/m² | - |
| 1778007052 | 26.11° C | 85% | 1013.2 hPa | 0 mm | - | 162 W/m² | - |
| 1778006749 | 26.67° C | 84% | 1013.1 hPa | 0 mm | - | 66 W/m² | - |
| 1778006445 | 26.67° C | 84% | 1013.4 hPa | 0 mm | - | 185 W/m² | - |
| 1778006142 | 26.67° C | 84% | 1013.2 hPa | 0 mm | - | 188 W/m² | - |
* Rain latest hour (hover to see other rain measurements)
** Current wind speed in m/s (hover to see current wind gust speed)